Date String (YYYY-MM-DD hh:mm:ss) UTC,Instrument flags,absolute air pressure of the measurement (hPa),sample flow rate (lpm),inlet stack bypass flow (lpm),air temperature of the measurement (°C),ambient temperature measured by the external sensor (°C),aerosol sample conditioner tube jacket temperature (°C),OPC LED temperature (°C),internal box temperature (°C),relative humidity of the measurement (%),span deviation,mass concentration of particles derived from Lorenz-Mie calculation of OPC scattering (μg/m³),mass concentration of particles derived from Lorenz-Mie calculation of OPC scattering (μg/m³),mass concentration of particles derived from Lorenz-Mie calculation of OPC scattering (μg/m³)
DateTimeUTC,F1_M11,P_M11,Q1_M11,Q2_M11,T1_M11,T2_M11,T3_M11,T4_M11,T5_M11,U1_M11,ZSPAN_M11,X2_M11,X0_M11,X1_M11
2023-08-17 23:00:00,SystemResetWarning,0831.7,5.00,000.00,027.7,026.0,000.0,035.9,029.5,33.6,0001.3,0014.60,0030.17,0012.86
2023-08-17 23:01:00,SystemResetWarning,0831.7,5.00,000.00,027.7,026.1,000.0,035.9,029.5,33.7,0001.4,0014.71,0029.32,0012.94
2023-08-17 23:02:00,SystemResetWarning,0831.7,4.98,000.00,027.7,024.8,000.0,035.8,029.2,34.0,0001.6,0014.85,0030.18,0013.00
2023-08-17 23:03:00,SystemResetWarning,0831.7,5.02,000.00,027.6,024.0,000.0,035.8,029.0,34.4,0001.6,0014.87,0030.18,0013.06
2023-08-17 23:04:00,SystemResetWarning,0831.7,5.01,000.00,027.5,024.1,000.0,035.8,028.9,34.3,0001.3,0014.87,0030.18,0013.12
2023-08-17 23:05:00,SystemResetWarning,0831.6,4.99,000.00,027.5,024.5,000.0,035.8,028.9,34.7,0001.1,0014.84,0029.76,0013.15
2023-08-17 23:06:00,SystemResetWarning,0831.6,4.98,000.00,027.5,024.9,000.0,035.8,029.1,35.0,0001.1,0014.86,0030.47,0013.21
2023-08-17 23:07:00,SystemResetWarning,0831.6,5.04,000.00,027.7,025.4,000.0,035.8,029.3,35.3,0001.0,0014.91,0030.60,0013.27
2023-08-17 23:08:00,SystemResetWarning,0831.6,4.97,000.00,027.9,025.8,000.0,035.9,029.5,34.3,0001.3,0014.98,0030.52,0013.34
2023-08-17 23:09:00,SystemResetWarning,0831.6,5.02,000.00,028.2,025.9,000.0,035.9,029.6,33.7,0001.5,0015.02,0031.23,0013.38
2023-08-17 23:10:00,SystemResetWarning,0831.5,5.00,000.00,028.2,024.7,000.0,035.8,029.4,33.8,0001.9,0015.13,0030.00,0013.38
2023-08-17 23:11:00,SystemResetWarning,0831.5,4.98,000.00,028.2,023.9,000.0,035.8,029.2,33.7,0001.9,0015.18,0030.67,0013.38
2023-08-17 23:12:00,SystemResetWarning,0831.5,5.02,000.00,028.2,024.0,000.0,035.8,029.1,33.7,0002.1,0015.24,0031.85,0013.38
2023-08-17 23:13:00,SystemResetWarning,0831.4,5.00,000.00,028.2,024.4,000.0,035.9,029.1,33.7,0002.2,0015.25,0032.21,0013.39
2023-08-17 23:14:00,SystemResetWarning,0831.4,4.99,000.00,028.2,024.8,000.0,036.0,029.2,33.8,0002.2,0015.33,0033.94,0013.40
2023-08-17 23:15:00,SystemResetWarning,0831.4,5.00,000.00,028.2,025.3,000.0,036.1,029.3,33.6,0002.4,0015.43,0034.66,0013.40
2023-08-17 23:16:00,SystemResetWarning,0831.5,5.01,000.00,028.2,025.7,000.0,036.1,029.5,33.7,0002.4,0015.46,0034.74,0013.40
2023-08-17 23:17:00,SystemResetWarning,0831.4,5.00,000.00,028.3,025.8,000.0,036.2,029.5,33.5,0002.3,0015.46,0034.00,0013.41
2023-08-17 23:18:00,SystemResetWarning,0831.4,4.99,000.00,028.3,024.7,000.0,036.1,029.2,33.5,0002.6,0015.49,0032.67,0013.39
2023-08-17 23:19:00,SystemResetWarning,0831.3,5.00,000.00,028.2,023.9,000.0,036.1,029.1,33.3,0002.4,0015.48,0032.98,0013.39
2023-08-17 23:20:00,SystemResetWarning,0831.3,5.01,000.00,028.1,024.0,000.0,036.1,029.0,33.7,0002.2,0015.49,0033.38,0013.38
2023-08-17 23:21:00,SystemResetWarning,0831.3,5.01,000.00,028.0,024.3,000.0,036.1,029.0,33.5,0002.1,0015.37,0033.40,0013.36
2023-08-17 23:22:00,SystemResetWarning,0831.3,5.00,000.00,028.0,024.8,000.0,036.1,029.1,33.9,0002.1,0015.28,0033.00,0013.36
2023-08-17 23:23:00,SystemResetWarning,0831.4,5.00,000.00,028.1,025.2,000.0,036.2,029.3,33.7,0001.9,0015.24,0033.10,0013.36
2023-08-17 23:24:00,SystemResetWarning,0831.4,5.00,000.00,028.1,025.7,000.0,036.2,029.4,33.9,0001.6,0015.18,0034.40,0013.36
2023-08-17 23:25:00,SystemResetWarning,0831.4,5.00,000.00,028.2,026.0,000.0,036.2,029.6,33.4,0001.5,0015.16,0033.87,0013.35
2023-08-17 23:26:00,SystemResetWarning,0831.4,5.00,000.00,028.2,026.2,000.0,036.2,029.6,33.3,0001.7,0015.13,0034.27,0013.37
2023-08-17 23:27:00,SystemResetWarning,0831.4,4.98,000.00,028.2,025.0,000.0,036.2,029.3,33.0,0001.5,0015.18,0035.08,0013.41
2023-08-17 23:28:00,SystemResetWarning,0831.4,5.01,000.00,028.1,024.1,000.0,036.1,029.1,33.2,0001.9,0015.25,0035.69,0013.43
2023-08-17 23:29:00,SystemResetWarning,0831.3,5.01,000.00,028.0,024.1,000.0,036.1,029.0,32.9,0001.9,0015.21,0035.62,0013.43
2023-08-17 23:30:00,SystemResetWarning,0831.3,4.99,000.00,027.9,024.4,000.0,036.1,029.0,33.6,0002.0,0015.20,0034.53,0013.39
2023-08-17 23:31:00,SystemResetWarning,0831.4,4.99,000.00,027.9,024.8,000.0,036.1,029.1,33.8,0002.2,0015.16,0034.32,0013.37
2023-08-17 23:32:00,SystemResetWarning,0831.3,5.00,000.00,028.0,025.3,000.0,036.1,029.3,33.0,0002.1,0015.14,0035.64,0013.33
2023-08-17 23:33:00,SystemResetWarning,0831.4,5.01,000.00,028.0,025.7,000.0,036.2,029.5,32.9,0002.2,0015.10,0035.51,0013.30
2023-08-17 23:34:00,SystemResetWarning,0831.3,5.00,000.00,028.1,025.9,000.0,036.2,029.5,33.3,0001.9,0015.02,0033.97,0013.25
2023-08-17 23:35:00,SystemResetWarning,0831.3,4.99,000.00,028.0,024.8,000.0,036.1,029.3,33.8,0002.1,0015.03,0031.69,0013.21
2023-08-17 23:36:00,SystemResetWarning,0831.3,5.00,000.00,027.9,023.9,000.0,036.0,029.1,33.8,0002.0,0014.97,0031.31,0013.15
2023-08-17 23:37:00,SystemResetWarning,0831.3,5.01,000.00,027.9,024.0,000.0,036.0,029.0,34.2,0001.7,0014.92,0030.21,0013.07
2023-08-17 23:38:00,SystemResetWarning,0831.3,5.01,000.00,027.8,024.3,000.0,036.0,029.0,34.7,0001.9,0014.87,0029.91,0012.99
2023-08-17 23:39:00,SystemResetWarning,0831.3,5.00,000.00,027.8,024.8,000.0,036.0,029.1,34.6,0001.4,0014.80,0030.47,0012.93
2023-08-17 23:40:00,SystemResetWarning,0831.3,5.00,000.00,027.8,025.2,000.0,036.1,029.3,34.3,0001.0,0014.78,0030.92,0012.91
2023-08-17 23:41:00,SystemResetWarning,0831.3,5.00,000.00,027.9,025.7,000.0,036.1,029.4,34.0,0000.7,0014.73,0030.69,0012.88
2023-08-17 23:42:00,SystemResetWarning,0831.3,4.99,000.00,027.9,026.1,000.0,036.1,029.5,34.0,0000.4,0014.67,0030.27,0012.86
2023-08-17 23:43:00,SystemResetWarning,0831.3,5.00,000.00,028.0,026.2,000.0,036.1,029.6,34.0,0000.3,0014.61,0028.46,0012.82
2023-08-17 23:44:00,SystemResetWarning,0831.3,4.99,000.00,028.0,025.1,000.0,036.0,029.4,34.0,0000.4,0014.54,0027.78,0012.80
2023-08-17 23:45:00,SystemResetWarning,0831.3,5.01,000.00,027.9,024.1,000.0,036.0,029.1,34.3,0000.7,0014.50,0027.97,0012.79
2023-08-17 23:46:00,SystemResetWarning,0831.2,5.01,000.00,027.8,024.0,000.0,035.9,029.0,34.2,0001.1,0014.40,0028.18,0012.77
2023-08-17 23:47:00,SystemResetWarning,0831.2,5.00,000.00,027.7,024.3,000.0,036.0,028.9,34.5,0001.4,0014.39,0028.82,0012.77
2023-08-17 23:48:00,SystemResetWarning,0831.2,4.99,000.00,027.7,024.8,000.0,036.0,029.1,34.5,0001.3,0014.37,0027.93,0012.78
2023-08-17 23:49:00,SystemResetWarning,0831.2,4.99,000.00,027.8,025.2,000.0,036.0,029.3,34.3,0001.3,0014.32,0027.01,0012.81
2023-08-17 23:50:00,SystemResetWarning,0831.2,5.00,000.00,027.8,025.7,000.0,036.0,029.4,34.3,0001.8,0014.28,0025.50,0012.81
2023-08-17 23:51:00,SystemResetWarning,0831.2,5.01,000.00,027.9,026.0,000.0,036.1,029.5,34.4,0002.3,0014.26,0024.32,0012.81
2023-08-17 23:52:00,SystemResetWarning,0831.2,4.99,000.00,027.9,025.7,000.0,036.0,029.5,34.3,0002.5,0014.23,0025.10,0012.80
2023-08-17 23:53:00,SystemResetWarning,0831.2,4.99,000.00,027.8,024.4,000.0,035.9,029.3,34.3,0002.6,0014.25,0024.46,0012.82
2023-08-17 23:54:00,SystemResetWarning,0831.2,5.02,000.00,027.8,023.9,000.0,035.9,029.1,34.2,0002.5,0014.29,0024.11,0012.83
2023-08-17 23:55:00,SystemResetWarning,0831.2,4.99,000.00,027.7,024.1,000.0,035.9,028.9,34.3,0002.4,0014.39,0024.25,0012.85
2023-08-17 23:56:00,SystemResetWarning,0831.2,5.00,000.00,027.7,024.5,000.0,035.9,029.0,34.9,0002.2,0014.42,0023.90,0012.86
2023-08-17 23:57:00,SystemResetWarning,0831.2,5.00,000.00,027.7,024.9,000.0,036.0,029.2,34.6,0001.7,0014.48,0023.67,0012.87
2023-08-17 23:58:00,SystemResetWarning,0831.3,5.01,000.00,027.7,025.4,000.0,036.0,029.3,34.4,0001.8,0014.46,0022.52,0012.87
2023-08-17 23:59:00,SystemResetWarning,0831.2,5.00,000.00,027.8,025.8,000.0,036.0,029.4,34.2,0001.8,0014.42,0022.57,0012.87
